sat.trackr.live / text

‹ back to catalog

2024-173F

NORAD 61232 · 2024-173F

PAYLOAD ACTIVE UNKNOWN

§ Identity

Operator
Country
PRC
Launch date
2024-09-24
Launch site
YSLA
Launch vehicle
Mass (kg)
RCS (m²)

External: N2YO · Heavens-Above · Gunter

§ Orbital elements

Epoch: 2026-05-25T04:27:50.950368Z

Period
91.59 min
Inclination
97.3504°
Eccentricity
0.0006066
Mean motion
15.72281829 rev/d
Perigee alt
348.3 km
Apogee alt
356.5 km
Semi-major
6,730.5 km
B*
3.9325e-4
RAAN
240.7288°
Arg perigee
201.3564°
Mean anomaly
158.7447°
Rev number
9,398

§ Raw data

2024-173F1 61232U 24173F   26145.18600637  .00052050  00000+0  39325-3 0  99962 61232  97.3504 240.7288 0006066 201.3564 158.7447 15.72281829 93984

JSON: /api/v1/satellites/61232 · /tle

For live sub-satellite position, see the globe view (requires WebGL).

§ Visibility from observer

Set your observer location to see the next 7 days of passes ≥ 10°. The values pass through the URL so the page stays shareable.

No JS? Fill the form by hand. The geolocation button needs JavaScript.